sat.trackr.live / text

‹ back to catalog

STARLINK-2094

NORAD 47375 · 2021-005AC

PAYLOAD ACTIVE UNKNOWN

§ Identity

Operator
Country
US
Launch date
2021-01-20
Launch site
AFETR
Launch vehicle
Mass (kg)
RCS (m²)

Purposes: comms

External: N2YO · Heavens-Above · Gunter

§ Orbital elements

Epoch: 2026-09-19T23:01:17.377824Z

Period
94.01 min
Inclination
53.1593°
Eccentricity
0.0001173
Mean motion
15.31704685 rev/d
Perigee alt
469.9 km
Apogee alt
471.5 km
Semi-major
6,848.9 km
B*
1.4244e-5
RAAN
238.4276°
Arg perigee
88.5261°
Mean anomaly
271.5875°
Rev number
31,279

§ Raw data

STARLINK-20941 47375U 21005AC  26262.95922891  .00000077  00000+0  14244-4 0  99992 47375  53.1593 238.4276 0001173  88.5261 271.5875 15.31704685312795

JSON: /api/v1/satellites/47375 · /tle

For live sub-satellite position, see the globe view (requires WebGL).

§ Visibility from observer

Set your observer location to see the next 7 days of passes ≥ 10°. The values pass through the URL so the page stays shareable.

No JS? Fill the form by hand. The geolocation button needs JavaScript.